Weather History for KRDM - August, 2013

Change the Weather History Date:

Thursday, August 8, 2013

  Actual Average Record
Temperature  
Mean Temperature 69 °F 67 °F  
Max Temperature 87 °F 87 °F 104 °F (1972)
Min Temperature 51 °F 47 °F 37 °F (1970)
Degree Days  
Heating Degree Days 0 2  
Month to date heating degree days 7 13  
Since 1 June heating degree days 212 299  
Since 1 July heating degree days 27 82  
Cooling Degree Days 4 3  
Month to date cooling degree days 26 30  
Year to date cooling degree days 241 156  
Since 1 June cooling degree days 232 151  
Growing Degree Days 20 (Base 50)    
Moisture  
Dew Point 40 °F    
Average Humidity 38    
Maximum Humidity 59    
Minimum Humidity 16    
Precipitation  
Precipitation T in 0.02 in 0.21 in (1989)
Month to date precipitation 0.03 0.13  
Year to date precipitation 1.95 5.36  
Sea Level Pressure  
Sea Level Pressure 29.92 in    
Wind  
Wind Speed 5 mph (SW)    
Max Wind Speed 14 mph    
Max Gust Speed 18 mph    
Visibility 10 miles    
Events      
T = Trace of Precipitation, MM = Missing Value Source: NWS Daily Summary

Daily Weather History Graph

Daily Weather History Graph

Search for Another Location

Airport or City:

Trip Planner

Search our weather history database for the weather conditions in past years. The results will help you decide how hot, cold, wet, or windy it might be!

Date:

Astronomy

Aug. 08, 2013 Rise Set
Actual Time 6:00 AM PDT 8:19 PM PDT
Civil Twilight 5:28 AM PDT 8:51 PM PDT
Nautical Twilight 4:47 AM PDT 9:31 PM PDT
Astronomical Twilight 4:03 AM PDT 10:15 PM PDT
Moon 7:59 AM PDT (8/8) 8:52 PM PDT (8/8)
Length of Visible Light 15h 23m
Length of Day
14h 19m
Waxing Crescent, 3% of the Moon is Illuminated
Aug 8
Waxing Crescent
Aug 14
First Quarter
Aug 20
Full
Aug 28
Last Quarter
Sep 5
New

Hourly Weather History & Observations

Time (PDT) Temp. Dew Point Humidity Pressure Visibility Wind Dir Wind Speed Gust Speed Precip Events Conditions
12:56 AM 68.0 °F 41.0 °F 37% 29.95 in 10.0 mi NNE 5.8 mph - N/A   Overcast
1:56 AM 68.0 °F 39.9 °F 36% 29.95 in 10.0 mi Calm Calm - N/A   Overcast
2:56 AM 61.0 °F 39.0 °F 44% 29.95 in 10.0 mi Calm Calm - N/A   Partly Cloudy
3:56 AM 57.9 °F 39.0 °F 49% 29.95 in 10.0 mi SSW 5.8 mph - N/A   Clear
4:56 AM 53.1 °F 37.9 °F 57% 29.96 in 10.0 mi SSE 3.5 mph - N/A   Clear
5:56 AM 53.1 °F 39.0 °F 59% 29.96 in 10.0 mi SSE 6.9 mph - N/A   Clear
6:56 AM 55.9 °F 41.0 °F 57% 29.97 in 10.0 mi SSE 4.6 mph - N/A   Clear
7:56 AM 61.0 °F 43.0 °F 52% 29.97 in 10.0 mi Variable 3.5 mph - N/A   Clear
8:56 AM 69.1 °F 43.0 °F 39% 29.96 in 10.0 mi Calm Calm - N/A   Clear
9:56 AM 73.9 °F 39.9 °F 29% 29.96 in 10.0 mi Calm Calm - N/A   Clear
10:56 AM 80.1 °F 39.9 °F 24% 29.93 in 10.0 mi Variable 4.6 mph - N/A   Clear
11:56 AM 81.0 °F 39.9 °F 23% 29.92 in 5.0 mi NW 6.9 mph - N/A   Haze
12:56 PM 84.0 °F 39.9 °F 21% 29.90 in 10.0 mi NW 10.4 mph - N/A   Clear
1:56 PM 84.0 °F 37.0 °F 19% 29.89 in 10.0 mi Calm Calm - N/A   Clear
2:56 PM 86.0 °F 37.0 °F 18% 29.89 in 10.0 mi Variable 5.8 mph - N/A   Clear
3:56 PM 86.0 °F 35.1 °F 16% 29.88 in 10.0 mi North 4.6 mph - N/A   Clear
4:56 PM 84.0 °F 33.1 °F 16% 29.88 in 10.0 mi NNW 4.6 mph - N/A   Mostly Cloudy
5:56 PM 82.9 °F 34.0 °F 17% 29.88 in 10.0 mi South 9.2 mph - N/A   Overcast
6:56 PM 80.1 °F 37.9 °F 22% 29.87 in 10.0 mi SSW 8.1 mph - N/A   Partly Cloudy
7:56 PM 79.0 °F 42.1 °F 27% 29.86 in 10.0 mi WNW 8.1 mph - N/A   Clear
8:56 PM 73.0 °F 48.0 °F 41% 29.89 in 10.0 mi SW 8.1 mph - N/A   Scattered Clouds
9:56 PM 71.1 °F 48.0 °F 44% 29.90 in 10.0 mi SW 4.6 mph - N/A   Clear
10:56 PM 70.0 °F 46.9 °F 44% 29.90 in 10.0 mi WSW 5.8 mph - N/A   Scattered Clouds
11:56 PM 66.9 °F 46.0 °F 47% 29.90 in 10.0 mi Calm Calm - N/A   Overcast